Wind_Speed
9 20 23 29 29 25 22 18 17 13 13 17 21 20 21 27 34 36 40 44 42 41 41 41 38 41 44 42 35 33 33 32 28 23 21 21 24 23 23 22 22 24 23
13 13 20 23 24 25 25 21 19 17 16 18 18 17 22 24 31 36 37 39 41 41 38 38 39 39 39 39 34 35 30 28 31 17 16 3 7 20 24 24 23 24 25
18 15 16 22 22 24 28 24 23 22 18 19 18 18 21 19 20 29 31 35 37 36 33 32 38 36 40 37 35 37 33 25 33 29 13 3 4 4 14 26 25 27 28
18 18 17 19 24 25 30 27 25 23 20 21 19 23 15 15 14 26 29 30 33 34 32 32 33 30 33 33 32 36 33 30 28 28 21 14 14 3 1 13 26 26 28
21 20 20 23 23 29 29 29 28 26 24 23 23 22 18 16 20 22 25 29 33 33 32 29 30 34 26 32 27 30 29 31 34 27 20 16 14 9 4 2 7 25 30
20 16 17 23 22 27 28 28 28 27 26 28 24 23 22 22 22 22 23 26 29 31 28 25 33 35 35 33 27 32 37 33 34 32 31 19 12 8 5 2 6 10 15
19 18 19 16 23 26 27 27 27 27 28 27 28 28 27 25 27 25 24 24 25 28 32 26 31 33 34 37 41 44 40 34 33 33 29 28 22 15 14 11 7 9 9
19 20 20 18 25 27 27 27 27 25 27 27 29 29 27 27 26 30 27 28 29 32 36 34 30 34 36 39 43 41 35 34 33 33 32 30 24 21 20 21 16 3 7
18 19 17 18 25 29 31 31 27 25 27 27 29 28 28 27 30 29 32 33 30 28 30 32 36 36 34 34 33 34 34 35 36 36 37 34 27 25 32 35 32 16 5
17 15 16 15 25 28 29 31 31 28 28 28 29 28 27 29 32 33 33 33 36 35 37 34 35 34 35 36 35 37 37 38 39 39 37 36 35 33 36 39 38 34 25
16 16 15 19 24 25 27 29 30 29 28 29 28 28 27 29 29 32 35 36 35 36 36 40 39 38 37 38 39 39 41 41 41 42 41 44 41 39 42 45 42 35 32
14 14 15 16 21 24 25 28 29 30 31 34 31 30 29 29 31 28 31 36 37 38 39 40 38 36 38 41 42 41 36 39 38 41 42 46 43 43 43 39 38 37 37
8 7 10 13 14 22 24 26 29 32 32 33 34 33 32 31 30 30 29 32 36 38 37 38 38 39 38 39 42 43 41 42 45 41 40 43 39 40 38 37 36 37 36
17 15 11 6 7 5 5 11 16 24 29 31 31 32 33 32 31 32 30 32 35 35 37 38 38 40 38 39 40 42 43 42 41 41 45 44 42 45 42 39 40 39 34
19 16 14 13 13 18 15 5 12 18 21 24 27 32 35 36 36 35 34 34 32 36 36 35 37 38 40 41 40 39 38 39 40 40 43 45 46 49 49 43 42 37 33
18 17 16 16 15 17 18 19 17 6 22 22 22 18 20 23 29 33 36 36 35 33 33 37 37 38 40 42 44 42 38 38 38 40 41 43 43 50 53 55 55 46 37
16 16 16 14 18 20 20 22 21 22 13 4 1 4 18 26 29 32 32 33 35 35 37 37 38 39 42 43 44 43 45 39 40 40 39 39 42 44 48 52 55 55 55
16 15 12 18 20 19 24 22 24 25 24 22 19 16 12 7 5 24 29 31 32 35 36 37 38 38 41 42 43 45 46 46 45 43 43 43 45 44 47 47 45 48 52
13 15 20 18 21 23 23 24 26 24 24 23 20 18 16 16 12 8 5 12 27 30 33 33 32 35 40 33 40 42 48 45 45 45 44 43 42 44 45 44 45 36 24
19 18 18 20 22 22 23 26 25 24 24 21 19 18 17 16 15 14 12 11 13 13 21 11 10 6 11 13 25 33 36 34 37 37 40 41 42 41 41 40 42 28 21
20 20 24 24 24 24 22 22 21 22 19 17 18 21 20 17 18 16 15 13 9 5 9 12 12 11 11 10 13 14 17 22 22 18 11 9 12 15 18 22 19 22 28
22 22 19 21 23 24 20 19 21 17 17 21 24 26 26 23 25 23 21 19 14 15 17 18 21 20 21 24 21 16 12 8 19 25 26 28 31 30 28 31 34 32 28
16 17 17 18 22 23 23 19 18 15 15 23 23 24 27 28 27 29 28 25 21 16 16 17 17 17 19 23 30 31 34 35 37 31 32 32 37 38 35 32 31 29 27
15 16 18 20 21 22 22 19 17 14 15 18 19 21 26 29 30 28 28 25 22 18 16 15 15 15 17 20 24 29 29 39 38 36 36 34 36 35 33 30 27 28 27
18 18 18 19 20 19 21 21 19 14 14 17 17 18 20 22 27 35 31 28 33 24 19 19 19 18 20 20 19 21 24 28 28 27 30 27 29 30 29 28 24 24 23
16 17 19 19 20 21 22 22 20 18 15 16 16 17 18 19 20 21 28 38 38 38 35 30 28 31 27 25 25 24 24 24 24 29 24 22 23 22 21 21 21 22 20
Wind_Direction
163 153 156 155 160 163 164 166 154 166 166 176 167 174 165 166 164 167 175 178 181 180 180 177 176 176 178 179 180 188 184 179 184 167 156 182 193 193 196 197 203 208 212
152 153 151 150 156 163 169 170 164 171 169 174 168 152 162 169 168 169 173 176 182 181 183 180 181 188 185 187 188 186 180 183 184 171 162 130 181 208 207 210 211 219 221
163 162 164 163 159 166 170 172 173 178 169 166 169 166 167 161 164 168 172 177 185 189 187 185 191 194 194 190 192 191 184 180 186 187 169 127 206 159 212 216 220 224 223
171 164 167 167 170 171 172 175 177 182 180 173 164 166 158 159 167 174 182 183 189 193 194 196 201 195 201 198 197 195 194 186 183 186 189 192 146 170 226 226 225 228 232
169 172 176 166 168 167 168 170 179 183 189 190 180 171 169 171 177 180 187 194 194 200 195 202 206 204 200 192 190 196 205 199 188 189 183 170 147 164 142 209 216 226 232
175 164 157 155 164 167 170 172 178 182 188 193 194 177 176 179 176 177 183 188 194 204 197 207 209 207 206 195 191 206 219 202 199 196 200 198 173 179 173 174 219 216 240
159 156 158 166 167 166 171 171 179 183 185 187 191 196 193 183 186 187 183 183 191 202 201 203 205 207 202 200 204 207 216 208 207 207 208 218 221 220 211 209 230 233 254
163 166 168 168 168 169 174 172 181 184 186 188 191 193 196 197 193 191 191 190 195 203 206 208 209 206 201 203 206 209 214 217 219 221 225 221 221 229 247 243 221 231 244
166 168 167 168 167 171 176 172 175 183 189 188 192 193 195 193 201 200 199 199 201 207 212 216 217 216 215 215 217 221 221 226 227 228 227 225 231 239 242 254 248 224 240
168 165 167 166 171 174 178 178 181 187 190 191 192 195 196 201 205 206 203 204 208 206 209 213 216 219 221 223 223 226 228 232 232 232 226 226 231 241 246 255 250 244 234
170 170 168 166 168 171 175 179 180 187 189 196 193 196 198 200 203 206 210 210 209 210 212 215 217 214 214 219 223 223 226 229 232 233 229 233 237 226 228 237 239 239 237
168 168 162 157 165 172 176 182 184 187 191 196 197 200 199 199 200 203 212 216 216 216 218 220 221 221 222 222 225 226 226 230 225 227 226 232 233 232 234 236 239 238 238
76 109 138 160 170 176 179 183 186 191 193 196 201 205 206 203 206 210 213 218 222 222 221 222 222 225 225 226 230 232 231 231 234 233 233 233 231 232 234 236 239 242 246
76 69 54 62 106 118 188 202 200 195 193 195 199 204 208 209 211 215 215 216 220 221 222 223 225 227 228 230 231 233 234 236 235 236 238 237 232 235 236 236 240 245 245
68 66 61 56 57 55 53 130 201 210 207 206 207 209 211 213 213 215 217 217 216 221 224 225 226 227 228 228 228 230 232 234 237 238 239 239 238 241 242 239 245 243 243
63 58 52 48 39 37 41 37 32 329 217 206 216 224 224 223 221 221 220 220 221 221 223 224 225 226 228 231 231 229 230 234 237 240 241 243 244 247 249 251 250 247 243
66 58 56 49 39 29 38 38 27 32 62 98 155 216 228 224 225 226 224 223 225 226 224 226 227 230 234 237 237 237 237 237 238 240 243 245 246 248 251 252 250 252 251
67 67 61 51 39 36 42 42 40 36 38 42 42 31 19 4 298 232 228 228 226 225 225 229 229 233 240 242 243 241 238 238 240 240 242 242 245 245 245 246 247 249 247
63 57 58 53 45 37 39 43 39 39 34 24 24 23 12 7 358 4 305 265 236 230 229 231 232 233 242 248 249 242 237 237 241 243 243 244 245 246 246 241 238 233 232
60 57 56 52 46 36 45 45 37 34 30 25 14 22 19 16 11 2 349 327 306 302 241 216 202 214 234 260 247 245 241 237 236 239 241 243 245 246 245 240 231 198 173
50 48 46 45 38 35 43 44 38 38 36 34 32 29 29 25 20 13 16 20 24 48 88 98 71 60 39 1 328 281 266 262 248 232 224 235 235 225 221 212 185 146 125
40 38 43 40 32 32 38 41 34 31 37 44 44 40 38 36 34 32 23 31 52 72 71 72 63 57 50 49 38 32 43 69 88 76 65 69 71 78 94 101 109 109 105
44 44 44 40 34 30 27 26 16 31 47 51 48 43 41 39 37 38 32 27 26 43 70 79 76 67 64 70 76 72 89 97 92 86 88 86 93 94 85 89 97 103 100
43 43 48 42 34 28 26 20 21 33 49 57 58 56 54 51 48 47 43 40 34 38 45 53 62 65 65 79 87 89 94 99 100 102 95 94 91 88 92 90 92 90 90
44 41 45 48 41 33 31 24 29 41 54 60 62 65 65 65 63 59 54 56 54 58 61 61 64 65 65 66 82 87 84 91 98 99 88 84 82 80 79 78 77 85 90
52 50 47 46 39 36 34 33 37 53 57 61 59 64 72 71 69 67 64 61 65 65 67 69 73 74 79 79 79 82 84 90 90 83 76 71 70 74 74 69 69 73 74
Height
687 695 702 703 708 713 717 720 724 730 732 735 737 739 741 743 746 753 759 763 770 775 781 786 793 797 803 807 813 818 822 826 831 836 842 847 850 850 852 854 857 859 861
689 696 700 703 707 711 714 718 723 729 732 734 736 737 740 744 746 752 759 764 770 775 779 785 790 798 802 806 810 815 821 824 828 831 838 846 852 850 851 852 853 856 858
683 693 697 700 705 709 711 715 720 728 731 734 737 740 744 746 748 753 758 763 770 775 779 784 790 795 799 803 809 813 816 820 825 830 834 844 846 846 849 849 850 852 854
673 682 691 697 700 706 710 713 718 724 730 734 736 739 743 747 749 751 758 764 770 774 779 784 789 793 797 801 806 812 814 816 822 828 830 833 832 844 847 845 846 848 849
666 676 682 689 698 703 708 711 717 722 728 732 735 739 743 746 750 755 759 764 768 773 777 782 786 791 795 799 803 809 813 815 818 823 827 830 829 836 838 842 840 843 843
660 672 682 689 697 701 707 711 716 721 726 730 733 736 741 746 751 754 758 762 766 771 775 780 785 789 793 796 802 808 811 812 815 819 822 826 825 830 833 836 837 838 837
658 669 678 686 693 697 704 709 714 719 723 727 730 734 737 743 747 752 755 759 764 768 772 777 782 786 789 793 799 803 806 807 810 814 818 822 824 825 829 831 833 834 833
651 660 669 678 686 693 700 705 712 717 721 725 729 733 736 739 743 747 752 755 759 764 768 773 778 782 787 792 797 799 802 805 807 810 814 816 817 821 824 827 829 831 830
648 657 667 674 681 688 694 699 707 714 719 722 727 731 735 737 740 743 747 751 756 761 765 770 775 779 784 788 791 795 797 800 803 806 809 810 811 815 819 823 823 822 825
647 655 662 670 677 684 691 697 701 708 715 720 724 728 732 735 738 742 744 748 752 757 761 766 770 774 778 782 786 789 792 795 797 799 802 804 803 806 813 815 815 814 815
643 649 658 666 675 683 688 694 699 705 710 716 720 724 728 732 736 739 742 745 750 753 757 761 764 767 771 775 778 781 784 786 789 792 794 796 796 797 800 802 804 803 804
639 646 654 664 673 680 686 690 695 700 704 709 715 719 724 727 731 734 738 743 747 750 754 757 761 764 766 770 772 774 778 779 781 782 784 785 788 790 792 792 793 793 791
648 653 659 665 670 676 681 686 690 693 698 703 708 713 718 722 726 731 735 738 742 746 749 752 755 758 760 763 765 768 770 772 773 776 777 777 781 781 783 784 785 784 783
656 663 669 672 677 684 689 691 692 693 695 698 704 707 711 716 720 724 728 732 736 739 742 745 748 750 754 755 758 760 762 763 765 767 767 768 771 770 772 773 773 773 773
667 675 679 681 683 686 689 691 694 696 699 702 702 700 704 709 713 717 720 724 727 729 733 737 739 742 744 745 748 751 753 755 756 758 758 757 758 758 758 761 760 762 763
681 686 688 691 692 692 692 693 692 693 694 697 701 707 711 713 712 712 714 716 719 722 725 727 729 732 732 733 737 741 743 745 746 745 747 747 748 746 747 748 749 752 752
695 696 699 702 702 702 699 697 698 695 692 696 700 703 704 705 706 708 710 711 713 716 716 718 721 721 722 724 728 733 735 735 734 734 735 736 734 735 735 735 738 738 739
706 708 710 709 710 710 704 704 703 702 701 701 700 701 702 703 703 703 704 705 707 707 707 709 711 713 712 716 719 721 723 722 721 722 721 721 720 721 722 725 724 725 723
714 715 712 716 714 712 710 707 707 708 708 709 708 705 704 702 699 699 700 700 701 700 700 702 705 706 704 710 710 709 709 709 708 709 710 710 709 709 712 713 713 714 715
722 723 723 722 720 719 714 712 715 715 715 714 716 710 709 707 704 701 699 697 696 695 695 697 697 696 699 699 698 698 698 698 697 698 697 697 696 697 699 701 700 702 707
727 725 721 723 724 721 721 723 725 724 724 722 719 714 711 710 707 705 702 698 696 694 694 694 696 695 695 694 693 690 690 691 691 689 689 689 686 686 687 690 694 700 707
728 731 731 731 729 727 727 729 728 729 727 723 720 718 715 713 708 706 706 703 698 697 699 699 700 701 701 695 696 691 686 691 695 698 704 702 700 696 693 693 700 706 715
741 741 740 738 733 731 730 731 731 731 729 726 724 723 720 717 715 712 710 708 707 706 703 703 705 707 706 702 700 703 694 690 699 710 704 708 703 701 705 712 710 715 718
746 745 743 741 739 736 736 737 733 731 730 729 729 728 726 725 723 721 721 719 718 716 715 715 714 713 713 710 708 705 704 696 703 710 709 719 713 716 719 719 723 718 725
749 749 748 747 747 746 743 742 738 734 733 733 733 733 733 733 733 731 730 730 730 727 725 723 721 721 721 722 721 721 717 711 716 720 714 722 718 721 728 733 740 736 733
758 756 756 754 752 751 749 747 744 739 738 738 738 737 736 737 738 740 740 739 737 735 734 733 730 730 730 729 727 727 725 726 729 725 727 731 732 734 738 741 746 747 751